This demonstration page uses our WeatherBlox Daily Observations layout. Learn more.

Left ArrowRight Arrow

41.86663, -103.66717

Hourly Observations for September 3, 2018

Temp ( °F °C ) Dew Point ( °F °C ) Humidity (%) Winds ( mph kmh ) Pressure ( in mb ) Visibility ( mi km ) Precip ( " mm )
12:53 am 00:53 Clear 60 15.6 60 15.6 100 100 ESE 7 11 29.96 1015 10 16 N/A
1:53 am 01:53 Clear 60 15.6 60 15.6 100 100 ESE 9 15 29.95 1014 10 16 N/A
2:53 am 02:53 Clear 60 15.6 60 15.6 100 100 ESE 10 17 29.95 1014 10 16 N/A
3:53 am 03:53 Clear 58 14.4 58 14.4 100 100 ESE 10 17 29.94 1014 8 13 N/A
4:53 am 04:53 Clear 58 14.4 58 14.4 100 100 ESE 10 17 29.94 1014 7 11 N/A
5:53 am 05:53 Clear 58 14.4 58 14.4 100 100 E 8 13 29.93 1014 7 11 N/A
6:13 am 06:13 Partly Cloudy with Mist and Fog 58 14.4 58 14.4 100 100 ESE 14 22 29.94 1014 2 3 N/A
6:16 am 06:16 Mostly Cloudy with Mist and Fog 57 14 57 14 100 100 ESE 13 20 29.97 1015 1 2 N/A
6:23 am 06:23 Mostly Cloudy with Fog 58 14.4 58 14.4 100 100 ESE 12 19 29.94 1014 1 1 N/A
6:26 am 06:26 Mostly Cloudy with Fog 57 14 57 14 100 100 ESE 13 20 29.97 1015 0 0 N/A
6:53 am 06:53 Mostly Cloudy with Fog 59 15 59 15 100 100 ESE 12 19 29.95 1014 0 0 N/A
7:03 am 07:03 Mostly Cloudy with Fog 59 15 59 15 100 100 ESE 13 20 29.94 1014 0 0 N/A
7:51 am 07:51 Mostly Cloudy with Mist and Fog 61 16 61 16 100 100 ESE 13 20 29.94 1014 1 1 N/A
7:53 am 07:53 Cloudy with Mist and Fog 61 16.1 61 16.1 100 100 ESE 13 20 29.97 1015 1 1 N/A
8:03 am 08:03 Cloudy with Mist and Fog 61 16.1 61 16.1 100 100 ESE 15 24 29.97 1015 2 2 N/A
8:07 am 08:07 Cloudy with Mist and Fog 61 16.1 61 16.1 100 100 ESE 13 20 29.97 1015 3 5 N/A
8:53 am 08:53 Cloudy 64 17.8 64 17.8 100 100 ESE 13 20 29.97 1015 10 16 N/A
9:43 am 09:43 Partly Cloudy 66 18.9 64 17.8 93 93 ESE 13 20 29.91 1013 10 16 N/A
9:53 am 09:53 Mostly Cloudy 67 19.4 64 17.8 91 91 ESE 13 20 29.98 1015 10 16 N/A
10:15 am 10:15 Partly Cloudy 69 20.6 65 18.3 87 87 ESE 14 22 29.91 1013 10 16 N/A
10:53 am 10:53 Sunny 72 22.2 65 18.3 79 79 SE 14 22 29.95 1014 10 16 N/A
11:53 am 11:53 Sunny 76 24.4 65 18.3 69 69 ESE 14 22 29.93 1014 10 16 N/A
12:53 pm 12:53 Sunny 80 26.7 65 18.3 60 60 ESE 18 30 29.90 1013 10 16 N/A
1:53 pm 13:53 Sunny 85 29.4 60 15.6 43 43 SSE 15 24 29.87 1012 10 16 N/A
2:53 pm 14:53 Sunny 84 28.9 56 13.3 38 38 SSE 15 24 29.87 1011 10 16 N/A
3:53 pm 15:53 Sunny 82 27.8 58 14.4 44 44 SSE 16 26 29.85 1011 10 16 N/A
4:53 pm 16:53 Sunny 80 26.7 60 15.6 51 51 S 15 24 29.85 1011 10 16 N/A
5:53 pm 17:53 Sunny 78 25.6 60 15.6 54 54 SSE 13 20 29.86 1011 10 16 N/A
6:53 pm 18:53 Sunny 75 23.9 60 15.6 60 60 SSE 10 17 29.87 1012 10 16 N/A
7:53 pm 19:53 Clear 73 22.8 60 15.6 64 64 SE 12 19 29.88 1012 10 16 N/A
8:53 pm 20:53 Clear 70 21.1 61 16.1 73 73 SE 12 19 29.88 1012 10 16 N/A
9:53 pm 21:53 Clear 67 19.4 64 17.8 91 91 ESE 12 19 29.88 1012 10 16 N/A
10:53 pm 22:53 Clear 63 17.2 63 17.2 100 100 ESE 10 17 29.88 1012 10 16 N/A
11:53 pm 23:53 Clear 61 16.1 61 16.1 100 100 ESE 8 13 29.88 1012 10 16 N/A

Powered by AerisWeather